ARIANE 40 R/B

Satellite information

Favourite Embed

Satellite Type and Status

ROCKET BODYIN ORBIT

Key statistics

Satellite ARIANE 40 R/B at a glance.

Uptime

11767

Days in orbit

Revolutions

≈ 14.3

Per day

Orbit

SSO

Sun Synchronous Orbit

Inclination

98.5

Latest

Satellite identification and parameters

Extended collection of information and parameters for ARIANE 40 R/B.

Object identification

Identified? True

Debris? False

Object name: ARIANE 40 R/B

International designator: 1993-061H

Object number (NORAD): 22830

Object ID (CCSDS): 22830

Country: FRANCE (FR)

Current information (Y/N): Y

RCS size: LARGE

Orbital parameters

Period: 100.502 minutes

Inclination: 98.5077 deg

SMA: 7160.521 km

Apoapsis: 790.151 km

Periapsis: 774.62 km

RAAN: 51.7391 deg

Eccentricy: 0.00108447

Argument of periapsis: 177.5855 deg

Mean anomaly: 182.5384 deg

Mean motion: 14.32800969 rev/day

Mean motion (dot): 0.00000435 rev/day2

B* drag term: 0.00017535927 1/REarth

Two-line elements (TLE)

Creation date: Dec. 12, 2025, 10:14 a.m.

Reference frame: TEME

Reference center: EARTH

Epoch: Dec. 12, 2025, 4:46 a.m. UTC

TLE line 0: 0 ARIANE 40 R/B

TLE line 1: 1 22830U 93061H 25346.19926506 .00000435 00000-0 17536-3 0 9999

TLE line 2: 2 22830 98.5077 51.7391 0010845 177.5855 182.5384 14.32800969681575

Live tracking on map

Real-time ground track for satellite ARIANE 40 R/B.

In-orbit conjunctions

A list of the most updated potential collisions computed for object ARIANE 40 R/B.

Target Orbit TCA Probability of collision Miss distance Type
FENGYUN 1C DEB SSO 2025-03-27 05:47:16 0.0001009475 829.0 (m) DEBRIS
FENGYUN 1C DEB SSO 2025-02-07 16:13:50 0.0001158974 420.0 (m) DEBRIS
THOR ABLESTAR DEB LEO 2024-09-26 21:59:34 0.001085557 594.0 (m) DEBRIS
FENGYUN 1C DEB SSO 2024-09-03 18:08:31 0.000151602 600.0 (m) DEBRIS

Associated space launch

The satellites SPOT 1, 2 and 3 (Satellite Probatoire de l'Observation de la Terre) were the first generation of SPOT earth observation satellites operated by Spot Image.

ARIANE 40 R/B was lifted into orbit during the mission ‘Ariane 40 | SPOT 3’, on board a Ariane 40 space rocket.

The launch took place on Sept. 26, 1993, 1:45 a.m. from Ariane Launch Area 2.

For more information about the launch, click the button.

Launch to space Ariane 40 | SPOT 3
Ariane 40 | SPOT 3

Agency: N/A

Status: Launch Successful

Launch date: Sept. 26, 1993, 1:45 a.m. UTC

Rocket: Ariane 40

Launch pad: Ariane Launch Area 2

Location: Guiana Space Centre, French Guiana

...

Latest news about this satellite

There are no fresh news available about this satellite. Check back as we update our databases every day.


Newsletter sign-up

Weekly statistics, charts and insights to help you stay on top of the space industry.